Tracking 28799 objects as of 18-Apr-2024
HD Live streaming from Space Station
objects crossing your sky now

BREEZE-M DEB

Track BREEZE-M DEB now!
10-day predictions


NORAD ID: 38583
Int'l Code: 2008-011AE
Perigee: 375.1 km
Apogee: 26,275.4 km
Inclination: 49.0 °
Period: 458.5 minutes
Semi major axis: 19696 km
RCS: 0.097 m2 (small)
Launch date: March 14, 2008
Source: Commonwealth of Independent States (former USSR) (CIS)
Launch site: TYURATAM MISSILE AND SPACE COMPLEX (TTMTR)

Note: This is SATELLITE DEBRIS
Your satellite tracking list
Your tracking list is empty




NASA's NSSDC Master Catalog

Two Line Element Set (TLE):
1 38583U 08011AE  24108.27309124  .00007165  00000-0  74127-2 0  9992
2 38583  49.0365 129.4092 6574910 101.6068 333.8515  3.14070627148659
Source of the keplerian elements: AFSPC